[[{"header":{"parameterUnit":"m.s-1","parameterCategory":1,"la1":30.2991,"la2":30.254,"lo1":-89.0895,"lo2":-89.0444,"dy":0.0017,"dx":0.0017,"nx":28,"ny":28,"refTime":"2024-05-04T09:00:00:Z","depth":0,"parameterNumber":2,"parameterNumberName":"U-component_of_WINDS"},"data":[0,0,0,0,0,0,0,0,0,0,0,0,0,0,0,0,0,0,0,0,0,0,0,0,0,0,0,0,0,0,0,0,0,0,0,0,0,0,0,0,0,0,0,0,0,0,0,0,0,0,0,0,0,0,0,0,0,0,0.337,0.337,0,0.3412,0.3413,0.3413,0.3422,0.3422,0.3421,0.3421,0.3462,0.3464,0.3465,0,0,0,0,0,0,0,0,0,0,0,0,0,0.3294,0.3295,0.337,0.337,0.3371,0.3412,0.3413,0.3413,0.3422,0.3422,0.3421,0.3421,0.3462,0.3464,0.3465,0,0,0,0,0,0,0,0,0,0,0,0,0,0.333,0.3295,0.3369,0.338,0.3382,0.3412,0.3413,0.3413,0.3422,0.3422,0.3421,0.3421,0.3461,0.3463,0.3466,0.3488,0,0,0.3472,0.3473,0,0,0,0,0,0,0,0,0.3328,0.3333,0.3378,0.3379,0.3381,0.3411,0.3401,0.3438,0.3422,0.3407,0.3421,0.3421,0.3446,0.3449,0.3458,0.349,0.3491,0.3472,0.3473,0.3474,0.3475,0,0,0,0,0,0,0,0.3326,0.3331,0.3386,0.3379,0.3381,0.3382,0.3387,0.3408,0.3428,0.3408,0.3409,0.3414,0.3446,0.3456,0.3459,0.3492,0.3472,0.3474,0.3475,0.3476,0.3543,0.3543,0,0,0,0,0,0,0.3322,0.3329,0.3385,0.3388,0.3353,0.3384,0.3389,0.3402,0.3428,0.3432,0.3414,0.3414,0.3453,0.3457,0.346,0.3487,0.3474,0.3476,0.3477,0.3542,0.3543,0.3543,0,0,0,0,0,0,0.332,0.3326,0.3383,0.3359,0.3366,0.3385,0.34,0.3403,0.3413,0.3433,0.3436,0.342,0.3452,0.3458,0.3481,0.3489,0.3477,0.3479,0.3542,0.3542,0.3543,0.3542,0,0,0,0,0,0,0.3318,0.3326,0.3335,0.3359,0.3367,0.3404,0.3401,0.3404,0.3416,0.3417,0.3439,0.3443,0.3452,0.3478,0.3483,0.3492,0.3481,0.3541,0.3542,0.3543,0.3541,0.3543,0.3544,0,0,0,0,0,0.3315,0.3333,0.3336,0.3342,0.3379,0.3404,0.3409,0.342,0.3417,0.3426,0.3439,0.3442,0.3487,0.348,0.3486,0.3495,0.354,0.3542,0.3543,0.3541,0.3542,0.3544,0,0,0,0,0,0,0.3309,0.3336,0.3339,0.3366,0.3383,0.3406,0.3417,0.3422,0.3439,0.3439,0.3452,0.3457,0.3479,0.3489,0.3481,0.3518,0.3514,0.3516,0.351,0.3512,0.3513,0.351,0.3482,0,0,0,0,0,0.3311,0.3329,0.3352,0.3373,0.3381,0.3398,0.3409,0.3416,0.3434,0.3441,0.3455,0.3472,0.349,0.3501,0.3519,0.3543,0.3547,0.3552,0.3553,0.3554,0.3556,0.3569,0.3571,0.3547,0.3547,0.3547,0,0,0.3314,0.3332,0.3343,0.3372,0.3386,0.3404,0.3404,0.3423,0.3436,0.3444,0.3467,0.3478,0.3497,0.352,0.3531,0.353,0.3564,0.3556,0.3556,0.3558,0.357,0.3572,0.3574,0.3548,0.3548,0.3548,0,0,0.3331,0.3346,0.3365,0.3379,0.34,0.3411,0.3415,0.3438,0.3445,0.3469,0.3475,0.349,0.3521,0.3534,0.3545,0.3565,0.3568,0.357,0.3576,0.3588,0.359,0.3592,0.3599,0.3601,0.3572,0.3572,0.3572,0,0.3332,0.3361,0.3373,0.3393,0.3405,0.3413,0.3432,0.3444,0.347,0.3478,0.3476,0.3514,0.3528,0.3554,0.3559,0.3567,0.3572,0.3568,0.3589,0.3591,0.3593,0.3599,0.3602,0.3572,0.3572,0.3572,0.3572,0,0.3361,0.3381,0.3393,0.3419,0.3432,0.3451,0.3466,0.3478,0.3484,0.3494,0.3517,0.3534,0.3555,0.3561,0.3567,0.3588,0.3587,0.3587,0.3583,0.3595,0.3601,0.3604,0.3572,0.3572,0.3572,0.3572,0,0,0.3375,0.3407,0.3411,0.3423,0.3446,0.3461,0.348,0.3501,0.3511,0.3528,0.3543,0.3569,0.3569,0.3581,0.3588,0.3599,0.3613,0.3598,0.3598,0.3599,0.3636,0.3636,0.3638,0.3615,0.3616,0.3616,0.3634,0,0.3394,0.3428,0.344,0.3468,0.3485,0.3493,0.3509,0.3525,0.3535,0.3551,0.3562,0.358,0.3579,0.3586,0.3597,0.3609,0.362,0.3608,0.3629,0.3629,0.3623,0.3642,0.3641,0.3658,0.3637,0.3637,0.3638,0,0.342,0.3438,0.3468,0.349,0.3497,0.3512,0.3531,0.3547,0.3564,0.3571,0.3584,0.3591,0.3609,0.3604,0.3629,0.3621,0.363,0.3637,0.3638,0.364,0.3634,0.3644,0.3663,0.3665,0.3642,0.3641,0.3641,0,0.3426,0.3458,0.348,0.349,0.3515,0.3525,0.3536,0.3553,0.3564,0.3581,0.3589,0.3607,0.3617,0.3631,0.3642,0.3638,0.3666,0.3662,0.3671,0.3671,0.3677,0.3676,0.3697,0.3683,0.3683,0.3683,0.3683,0,0.3446,0.3463,0.3483,0.3497,0.3517,0.3529,0.3548,0.3559,0.3575,0.359,0.3597,0.3611,0.3625,0.364,0.3648,0.3667,0.3672,0.3677,0.3679,0.3676,0.3676,0.3682,0.3681,0.3684,0.3684,0.3683,0.3683,0,0.3456,0.347,0.3494,0.3517,0.3522,0.3536,0.3554,0.3567,0.3578,0.3596,0.3601,0.3618,0.3636,0.3648,0.3671,0.3677,0.3697,0.3699,0.3692,0.3693,0.3701,0.37,0.3727,0.3731,0.3714,0.3714,0.3715,0,0.3467,0.3481,0.3505,0.3516,0.3527,0.3544,0.3556,0.3569,0.3581,0.3602,0.3612,0.3631,0.3646,0.3675,0.3688,0.3706,0.3708,0.3716,0.371,0.3707,0.3707,0.3706,0.3707,0.3717,0.3717,0.3717,0.3717,0,0.3485,0.3492,0.3509,0.3529,0.3543,0.3559,0.3575,0.3583,0.3598,0.3611,0.363,0.3643,0.3666,0.3684,0.3703,0.3713,0.3717,0.3719,0.3722,0.3719,0.3714,0.3716,0.3694,0.3718,0.3718,0.3718,0.3718,0.3718,0.3496,0.3509,0.3528,0.3546,0.356,0.3574,0.3587,0.36,0.3616,0.3637,0.3643,0.3663,0.3679,0.3704,0.3715,0.373,0.3729,0.3733,0.3734,0.3735,0.3735,0.3712,0.3733,0.3733,0.3733,0.3733,0.3733,0,0.3515,0.3527,0.3544,0.3567,0.3581,0.3585,0.3602,0.3614,0.3631,0.3647,0.3662,0.3683,0.3701,0.3715,0.3733,0.3742,0.3745,0.3746,0.3746,0.3748,0.3735,0.373,0.3744,0.3744,0.3744,0.3744,0.3744,0.3744,0.3526,0.3547,0.3555,0.3583,0.3595,0.3615,0.3624,0.3637,0.365,0.3674,0.3688,0.3698,0.3713,0.3732,0.3748,0.3751,0.3757,0.3759,0.3763,0.375,0.3749,0.3748,0.3743,0.376,0.376,0.3775,0.3775,0.3775]},{"header":{"parameterUnit":"m.s-1","parameterCategory":1,"la1":30.2991,"la2":30.254,"lo1":-89.0895,"lo2":-89.0444,"dy":0.0017,"dx":0.0017,"nx":28,"ny":28,"refTime":"2024-05-04T09:00:00:Z","depth":0,"parameterNumber":3,"parameterNumberName":"V-component_of_WINDS"},"data":[0,0,0,0,0,0,0,0,0,0,0,0,0,0,0,0,0,0,0,0,0,0,0,0,0,0,0,0,0,0,0,0,0,0,0,0,0,0,0,0,0,0,0,0,0,0,0,0,0,0,0,0,0,0,0,0,0,0,2.6135,2.6135,0,2.6127,2.6127,2.6127,2.609,2.6089,2.6089,2.6088,2.6081,2.6081,2.6082,0,0,0,0,0,0,0,0,0,0,0,0,0,2.6118,2.6119,2.6135,2.6135,2.6135,2.6127,2.6127,2.6127,2.609,2.6089,2.6088,2.6087,2.608,2.6081,2.6082,0,0,0,0,0,0,0,0,0,0,0,0,0,2.612,2.6119,2.6135,2.6116,2.6114,2.6127,2.6127,2.6127,2.6091,2.6089,2.6088,2.6087,2.608,2.6081,2.6082,2.6114,0,0,2.6085,2.6085,0,0,0,0,0,0,0,0,2.612,2.612,2.6118,2.6117,2.6115,2.6108,2.6119,2.6123,2.6091,2.6099,2.6088,2.6086,2.6091,2.6091,2.6092,2.6113,2.6113,2.6085,2.6085,2.6086,2.6086,0,0,0,0,0,0,0,2.612,2.612,2.6132,2.6118,2.6116,2.6107,2.6106,2.6119,2.6103,2.6099,2.6096,2.6095,2.609,2.6092,2.6092,2.6113,2.6085,2.6086,2.6086,2.6087,2.6159,2.6161,0,0,0,0,0,0,2.6122,2.6121,2.6132,2.6132,2.6114,2.6109,2.6107,2.6112,2.6102,2.61,2.6097,2.6094,2.6091,2.6091,2.6091,2.6127,2.6086,2.6087,2.6087,2.6158,2.616,2.6161,0,0,0,0,0,0,2.6122,2.6123,2.6132,2.6125,2.6126,2.611,2.6116,2.6112,2.6114,2.6101,2.6098,2.6101,2.609,2.609,2.6108,2.6127,2.6087,2.6088,2.6156,2.6158,2.616,2.62,0,0,0,0,0,0,2.6122,2.6124,2.6135,2.6126,2.6126,2.6149,2.6117,2.6113,2.6116,2.6112,2.6105,2.6102,2.6089,2.6107,2.6109,2.6127,2.6089,2.6155,2.6157,2.616,2.6197,2.6203,2.6209,0,0,0,0,0,2.6121,2.6147,2.6136,2.6138,2.6141,2.615,2.6151,2.6134,2.6117,2.6129,2.6121,2.6102,2.6125,2.6109,2.6111,2.613,2.6153,2.6157,2.616,2.6195,2.6202,2.6209,0,0,0,0,0,0,2.616,2.6146,2.6133,2.6157,2.6155,2.6144,2.6158,2.6143,2.6146,2.6143,2.6122,2.6121,2.6142,2.6138,2.6121,2.616,2.6136,2.614,2.6162,2.6169,2.6175,2.6175,2.6089,0,0,0,0,0,2.6171,2.618,2.6167,2.6189,2.6189,2.6174,2.6178,2.6165,2.6163,2.6162,2.6154,2.6153,2.6159,2.6164,2.6169,2.6197,2.6194,2.6211,2.6216,2.6221,2.6224,2.6238,2.6245,2.6171,2.6171,2.6171,0,0,2.6194,2.6188,2.6194,2.6197,2.6194,2.6204,2.6174,2.6185,2.6192,2.6164,2.618,2.6175,2.6172,2.6194,2.6204,2.6191,2.6244,2.6225,2.6229,2.6229,2.6242,2.6249,2.6255,2.6173,2.6173,2.6173,0,0,2.6241,2.6237,2.6255,2.6253,2.6249,2.6239,2.6243,2.6234,2.623,2.6246,2.6224,2.6233,2.6244,2.6243,2.6244,2.629,2.6273,2.6293,2.6322,2.6336,2.6342,2.6347,2.6363,2.6369,2.6296,2.6296,2.6296,0,2.6271,2.6284,2.6266,2.6279,2.628,2.6255,2.6273,2.6272,2.627,2.6271,2.6257,2.6271,2.6268,2.6289,2.6301,2.6302,2.6306,2.6293,2.6342,2.6347,2.6352,2.6367,2.6373,2.6298,2.6298,2.6298,2.6298,0,2.632,2.633,2.6345,2.6343,2.6346,2.6361,2.6346,2.6352,2.6339,2.6331,2.6347,2.6342,2.6345,2.635,2.6338,2.637,2.6362,2.6346,2.6321,2.6361,2.6375,2.638,2.6302,2.6301,2.63,2.63,0,0,2.639,2.6379,2.6384,2.6383,2.6377,2.6384,2.6398,2.6401,2.6406,2.6406,2.6417,2.6428,2.6412,2.6413,2.6401,2.6413,2.645,2.6395,2.6395,2.6405,2.6484,2.6495,2.6502,2.6439,2.644,2.6441,2.6484,0,2.6435,2.6458,2.6442,2.6468,2.6476,2.6452,2.6465,2.6462,2.6455,2.6461,2.6453,2.646,2.644,2.644,2.6451,2.6443,2.6465,2.644,2.6449,2.6449,2.6449,2.651,2.6522,2.6563,2.6489,2.649,2.6491,0,2.6489,2.6491,2.6517,2.6509,2.6512,2.6523,2.6524,2.6531,2.6528,2.6521,2.6522,2.6507,2.6521,2.6497,2.6515,2.6498,2.6501,2.6498,2.6499,2.6498,2.6472,2.651,2.6576,2.6581,2.6499,2.6498,2.6498,0,2.6537,2.6546,2.6562,2.6562,2.6553,2.6561,2.6558,2.6553,2.6556,2.6558,2.6559,2.6563,2.6565,2.6568,2.6554,2.6538,2.6573,2.6549,2.6568,2.6569,2.6576,2.6575,2.6642,2.658,2.658,2.6579,2.6579,0,2.6587,2.6604,2.6583,2.6594,2.6612,2.6594,2.6613,2.6607,2.6603,2.6612,2.6592,2.6601,2.6582,2.6589,2.6578,2.6594,2.6596,2.6591,2.6588,2.6592,2.6593,2.6593,2.6589,2.6581,2.6581,2.658,2.658,0,2.6643,2.663,2.6646,2.6636,2.6634,2.6648,2.6639,2.6648,2.664,2.6651,2.6653,2.6639,2.6646,2.6633,2.6638,2.6631,2.6654,2.6647,2.6655,2.6652,2.6672,2.667,2.6741,2.6749,2.6682,2.6683,2.6683,0,2.6675,2.6688,2.6679,2.6683,2.6681,2.6688,2.669,2.6674,2.6677,2.6675,2.6684,2.6689,2.6693,2.6705,2.6696,2.67,2.6692,2.6717,2.6693,2.6696,2.6691,2.669,2.6691,2.6721,2.6722,2.6723,2.6723,0,2.6734,2.6727,2.6731,2.6734,2.6737,2.6738,2.6738,2.6743,2.6725,2.673,2.6737,2.6739,2.6745,2.675,2.6752,2.6749,2.6733,2.6731,2.6736,2.674,2.6743,2.6741,2.6667,2.6729,2.6729,2.6728,2.6728,2.6728,2.6779,2.6788,2.6783,2.6789,2.6787,2.6787,2.6795,2.6787,2.6792,2.6795,2.6785,2.6794,2.679,2.6791,2.679,2.6796,2.6785,2.6792,2.6794,2.6796,2.6798,2.6743,2.6797,2.6797,2.6796,2.6796,2.6796,0,2.6835,2.6831,2.6836,2.6836,2.6841,2.6826,2.6824,2.6829,2.6837,2.6835,2.6838,2.6846,2.6851,2.6843,2.6846,2.6854,2.6846,2.6855,2.6854,2.6853,2.6808,2.6804,2.6861,2.6861,2.6861,2.6861,2.6861,2.6861,2.6865,2.6881,2.6873,2.6887,2.6883,2.6891,2.6891,2.6891,2.6889,2.6899,2.6903,2.6897,2.6892,2.6896,2.69,2.6897,2.6899,2.691,2.6905,2.6863,2.6856,2.685,2.6846,2.6911,2.6911,2.6949,2.6949,2.695]}]]